Weather in Tugur

Russia / Khabarovsk Krai     53°46′25″N   136°49′28″E
temp.,
°C
wind,
m/s
gust,
m/s
humid.,
%
clouds,
%
prec.,
mm/h
press.,
hPa
HPBL,
m
20 june, sun
sun2001:00+7n1165100 0.0 101110
04:00+8sse006581 0.0 101010
07:00+12sse1155100 0.0 101082
10:00+17ese114770 0.0 1009420
13:00+21se12437 0.0 1008789
16:00+22ene22446 0.0 1006748
19:00+17nne33626 0.0 1007126
22:00+12n11735 0.0 100810
21 june, mon
mon2101:00+11n117729 0.0 100811
04:00+8n228378 0.0 100915
07:00+10nne236995 0.0 1010131
10:00+14nne445774 0.0 1010291
13:00+16nne445380 0.0 1010324
16:00+14nne555875 0.0 1009256
19:00+11nne336839 0.0 1008144
22:00+7n238168 0.0 100948
22 june, tue
tue2201:00+6nne2281100 0.0 100826
04:00+5nne228494 0.0 100852
07:00+9ene217219 0.0 1008121
10:00+14ne216151 0.0 1007311
13:00+9nne347599 0.0 1007132
16:00+13nne5564100 0.0 1007299
19:00+10nne447310 0.0 1007193
22:00+5nne239315 0.0 100866
23 june, wed
wed2301:00+4nne359699 0.0 1009137
04:00+4nne349880 0.0 1008127
07:00+6ne2293100 0.2 1009149
10:00+10ne457324 0.3 1010445
13:00+13ne56626 0.0 1010531
16:00+12nne68659 0.0 1011408
19:00+8nne568364 0.0 1013283
22:00+5n3496100 0.0 1015152
24 june, thu
thu2401:00+5nne2498100 0.0 1015112
04:00+6n239653 0.0 1015125
07:00+7nne229167 0.0 1016246
10:00+10ne227129 0.0 1015655
13:00+13ne44588 0.0 1015833
16:00+14ne43559 0.0 1014625
19:00+14ene21579 0.0 1013459
22:00+9s11799 0.0 101211